Regional Weather Roundup
Issued by NWS Sioux Falls, SD

Home | Current Version | Previous Version | Text Only | Print | Product List | Glossary On
Versions: 1 2 3 4 5 6 7 8 9 10 11 12 13 14 15 16 17 18 19 20 21 22 23 24 25 26 27 28 29 30 31 32 33 34 35 36 37 38 39 40 41 42 43 44 45 46 47 48 49 50
000
ASUS43 KFSD 060510
RWRFSD

WEATHER ROUNDUP FOR SE SOUTH DAKOTA/SW MINNESOTA/NW IOWA
NATIONAL WEATHER SERVICE SIOUX FALLS SD
1100 PM CST THU MAR 05 2015

NOTE: "FAIR" INDICATES FEW OR NO CLOUDS BELOW 12,000 FEET WITH NO
SIGNIFICANT WEATHER AND OR OBSTRUCTIONS TO VISIBILITY.


SDZ038>040-050-052>070-060600-
SOUTHEAST SOUTH DAKOTA

CITY           SKY/WX    TMP DP  RH WIND       PRES   REMARKS
CHAMBERLAIN    CLEAR     27  17  64 W9        30.12S WCI  18
HURON          CLEAR     21   7  54 S10       30.12F WCI  10
MADISON        FAIR      18   9  68 S13       30.13F WCI   4
MITCHELL       CLEAR     21   8  57 S9        30.15F WCI  11
SIOUX FALLS    CLEAR     22   8  55 S16       30.17F WCI   8
WINNER         FAIR      31  19  61 W12       30.14S WCI  22
YANKTON        CLEAR     28   9  43 S6        30.20F WCI  22
$$

MNZ071-072-080-081-089-090-097-098-060600-
SOUTHWEST MINNESOTA

CITY           SKY/WX    TMP DP  RH WIND       PRES   REMARKS
FAIRMONT       CLEAR     12   3  67 S16       30.26F WCI  -4
JACKSON        CLEAR     18   7  62 S15       30.24F WCI   3
LUVERNE        CLEAR     18   9  68 S8        30.21F WCI   7
MARSHALL       CLEAR     19   7  58 SW26G35   30.17F WCI   1
MONTEVIDEO     CLEAR     16   9  73 S12G17    30.18F WCI   3
PIPESTONE      CLEAR     16   7  67 S12       30.16F WCI   3
REDWOOD FALLS  CLEAR     13   5  70 S14       30.22F WCI  -2
TRACY          CLEAR     18   8  65 S22G28    30.17F WCI   1
WINDOM         CLEAR     16   7  67 S15       30.21F WCI   1
WORTHINGTON    CLEAR     16   5  62 S20       30.22F WCI  -1
$$

IAZ001>003-012>014-020>022-031-032-NEZ013-014-SDZ071-060600-
NORTHWEST IOWA

CITY           SKY/WX    TMP DP  RH WIND       PRES   REMARKS
CHEROKEE       PTCLDY    17   7  64 S9        30.28F WCI   6
DENISON        PTCLDY    19   5  53 S16       30.28F WCI   5
ESTHERVILLE    CLEAR     13   5  70 S16       30.26F WCI  -3
LE MARS        CLEAR     21   9  58 S14       30.25F WCI   8
ORANGE CITY    CLEAR     19   9  63 S10       30.23F WCI   8
SHELDON        PTCLDY    18   7  62 S17       30.22F WCI   2
SIOUX CITY     CLOUDY    23   8  52 SE13      30.27F WCI  11
SPENCER        CLEAR     16   6  65 S13       30.26F WCI   2
STORM LAKE     CLOUDY    16   5  62 S16       30.27F WCI   0
$$

ABBREVIATIONS USED IN REMARKS
   TC - TEMPERATURE IN CELSIUS
  WCI - WIND CHILL INDEX
   HX - HEAT INDEX
  VSB - VISIBILITY



USA.gov is the U.S. government's official web portal to all federal, state and local government web resources and services.